Weather History for CXSE - July, 2013

Change the Weather History Date:

Sunday, July 28, 2013

  Actual Average Record
Temperature  
Mean Temperature 32 °F -  
Max Temperature 35 °F - - ()
Min Temperature 29 °F - - ()
Degree Days  
Heating Degree Days 33    
Moisture  
Dew Point 30 °F    
Average Humidity 90    
Maximum Humidity 97    
Minimum Humidity 82    
Precipitation  
Precipitation 0.00 in - - ()
Sea Level Pressure  
Sea Level Pressure 29.99 in    
Wind  
Wind Speed 14 mph ()    
Max Wind Speed 22 mph    
Max Gust Speed -    
T = Trace of Precipitation, MM = Missing Value Source: Averaged Metar Reports

Daily Weather History Graph

Daily Weather History Graph

Search for Another Location

Airport or City:

Trip Planner

Search our weather history database for the weather conditions in past years. The results will help you decide how hot, cold, wet, or windy it might be!

Date:

Astronomy

Dec. 31, 1969 Rise Set
Actual Time Sun does not set Sun does not set
Civil Twilight Sun does not set Sun does not set
Nautical Twilight Sun does not set Sun does not set
Astronomical Twilight Sun does not set Sun does not set
Moon 9:07 PM MDT (7/28) 3:01 PM MDT (7/28)
Length of Visible Light 24h 00m
Length of Day
24h 00m
Waning Gibbous, 60% of the Moon is Illuminated
Jul 28
Waning Gibbous
Jul 29
Last Quarter
Aug 6
New
Aug 14
First Quarter
Aug 20
Full

Hourly Weather History & Observations

Time (MDT) Temp. Windchill Dew Point Humidity Pressure Visibility Wind Dir Wind Speed Gust Speed Precip Events Conditions
12:00 AM 32 °F - 30 °F 87% 29.92 in - West 13.8 mph - -  
12:00 AM 31.6 °F 21.6 °F 29.7 °F 92% 29.92 in - West 13.8 mph - N/A   Unknown
1:00 AM 31.6 °F 23.1 °F 29.8 °F 93% 29.93 in - West 10.4 mph - N/A   Unknown
2:00 AM 31.8 °F 22.3 °F 29.8 °F 92% 29.94 in - West 12.7 mph - N/A   Unknown
3:00 AM 31.6 °F 22.1 °F 29.7 °F 92% 29.96 in - West 12.7 mph - N/A   Unknown
4:00 AM 31.6 °F 22.1 °F 29.8 °F 93% 29.97 in - West 12.7 mph - N/A   Unknown
5:00 AM 31.6 °F 21.6 °F 29.5 °F 92% 29.97 in - West 13.8 mph - N/A   Unknown
6:00 AM 31 °F - 29 °F 88% 29.98 in - West 18.4 mph - -  
6:00 AM 31.1 °F 19.3 °F 28.8 °F 91% 29.98 in - West 18.4 mph - N/A   Unknown
7:00 AM 31.1 °F 20.9 °F 28.9 °F 92% 29.99 in - West 13.8 mph - N/A   Unknown
8:00 AM 32.0 °F 21.2 °F 29.1 °F 89% 29.99 in - West 16.1 mph - N/A   Unknown
9:00 AM 29.8 °F 17.7 °F 27.7 °F 92% 29.99 in - West 18.4 mph - N/A   Unknown
10:00 AM 31.5 °F 20.9 °F 29.1 °F 91% 29.99 in - West 15.0 mph - N/A   Unknown
11:00 AM 31.3 °F 19.2 °F 30.2 °F 96% 29.98 in - West 19.6 mph - N/A   Unknown
12:00 PM 33 °F - 29 °F 82%  in - West 21.9 mph - -  
12:00 PM 32.9 °F 20.7 °F 29.5 °F 87% - - West 21.9 mph - N/A   Unknown
1:00 PM 34.0 °F 22.1 °F 29.8 °F 85% 30.00 in - West 21.9 mph - N/A   Unknown
2:00 PM 33.4 °F 21.7 °F 30.2 °F 88% - - West 20.7 mph - N/A   Unknown
3:00 PM 33.8 °F 22.2 °F 30.6 °F 88% 30.01 in - West 20.7 mph - N/A   Unknown
4:00 PM 34.5 °F 22.8 °F 30.9 °F 87% 30.01 in - West 21.9 mph - N/A   Unknown
5:00 PM 35.6 °F 24.5 °F 31.5 °F 85% 30.01 in - West 20.7 mph - N/A   Unknown
6:00 PM 35 °F - 32 °F 83% 30.01 in - West 19.6 mph - -  
6:00 PM 34.9 °F 23.9 °F 31.6 °F 88% 30.01 in - West 19.6 mph - N/A   Unknown
7:00 PM 34.5 °F 24.5 °F 30.6 °F 85% 30.02 in - West 16.1 mph - N/A   Unknown
8:00 PM 34.7 °F 24.3 °F 30.4 °F 84% 30.02 in - West 17.3 mph - N/A   Unknown
9:00 PM 31.3 °F 19.9 °F 30.6 °F 97% 30.01 in - West 17.3 mph - N/A   Unknown
10:00 PM 31.6 °F 20.7 °F 30.9 °F 97% 30.02 in - West 16.1 mph - N/A   Unknown
11:00 PM 31.5 °F 21.8 °F 30.4 °F 96% 30.02 in - West 12.7 mph - N/A   Unknown